Time,TemperatureF,DewpointF,PressureIn,WindDirection,WindDirectionDegrees,WindSpeedMPH,WindSpeedGustMPH,Humidity,HourlyPrecipIn,Conditions,Clouds,dailyrainin,SoftwareType,DateUTC
2013-10-15 00:02:00,64.4,63.5,30.03,South,185,0.0,0.0,97,0.00,,,0.00,Wunderground v.1.15,2013-10-15 05:02:00,
2013-10-15 00:07:00,64.5,63.6,30.03,South,185,0.0,0.0,97,0.00,,,0.00,Wunderground v.1.15,2013-10-15 05:07:00,
2013-10-15 00:12:00,64.5,63.6,30.03,South,184,0.0,0.0,97,0.00,,,0.00,Wunderground v.1.15,2013-10-15 05:12:00,
2013-10-15 00:17:00,64.3,63.4,30.03,South,184,0.0,0.0,97,0.00,,,0.00,Wunderground v.1.15,2013-10-15 05:17:00,
2013-10-15 00:22:00,64.2,63.3,30.03,South,184,0.0,0.0,97,0.00,,,0.00,Wunderground v.1.15,2013-10-15 05:22:00,
2013-10-15 00:27:00,64.1,63.2,30.03,South,185,0.0,0.0,97,0.00,,,0.00,Wunderground v.1.15,2013-10-15 05:27:00,
2013-10-15 00:32:00,64.1,63.2,30.03,South,185,0.0,0.0,97,0.00,,,0.00,Wunderground v.1.15,2013-10-15 05:32:00,
2013-10-15 00:37:00,64.2,63.3,30.03,South,185,0.0,0.0,97,0.00,,,0.00,Wunderground v.1.15,2013-10-15 05:37:00,
2013-10-15 00:42:00,64.2,63.3,30.03,South,185,0.0,0.0,97,0.00,,,0.00,Wunderground v.1.15,2013-10-15 05:42:00,
2013-10-15 00:47:00,64.1,63.2,30.03,South,185,0.0,0.0,97,0.00,,,0.00,Wunderground v.1.15,2013-10-15 05:47:00,
2013-10-15 00:52:00,64.1,63.2,30.03,South,184,0.0,0.0,97,0.00,,,0.00,Wunderground v.1.15,2013-10-15 05:52:00,
2013-10-15 00:57:00,64.0,63.1,30.03,South,184,0.0,0.0,97,0.00,,,0.00,Wunderground v.1.15,2013-10-15 05:57:00,
2013-10-15 01:02:00,63.8,62.9,30.03,South,184,0.0,0.0,97,0.00,,,0.00,Wunderground v.1.15,2013-10-15 06:02:00,
2013-10-15 01:07:00,63.8,62.9,30.03,South,185,0.0,0.0,97,0.00,,,0.00,Wunderground v.1.15,2013-10-15 06:07:00,
2013-10-15 01:12:00,63.8,62.9,30.03,South,185,0.0,0.0,97,0.00,,,0.00,Wunderground v.1.15,2013-10-15 06:12:00,
2013-10-15 01:22:00,63.9,63.0,30.02,South,184,0.0,0.0,97,0.00,,,0.00,Wunderground v.1.15,2013-10-15 06:22:00,
2013-10-15 01:27:00,63.9,63.3,30.03,South,185,0.0,0.0,98,0.00,,,0.00,Wunderground v.1.15,2013-10-15 06:27:00,
2013-10-15 01:32:00,63.7,62.8,30.03,South,185,0.0,0.0,97,0.00,,,0.00,Wunderground v.1.15,2013-10-15 06:32:00,
2013-10-15 01:38:00,63.8,62.9,30.03,South,184,0.0,0.0,97,0.00,,,0.00,Wunderground v.1.15,2013-10-15 06:38:00,
2013-10-15 01:43:00,63.9,63.3,30.03,South,185,0.0,0.0,98,0.00,,,0.00,Wunderground v.1.15,2013-10-15 06:43:00,
2013-10-15 01:53:00,63.9,63.3,30.02,South,185,0.0,0.0,98,0.00,,,0.00,Wunderground v.1.15,2013-10-15 06:53:00,
2013-10-15 01:58:00,63.9,63.3,30.02,South,185,0.0,0.0,98,0.00,,,0.00,Wunderground v.1.15,2013-10-15 06:58:00,
2013-10-15 02:03:00,63.8,63.2,30.02,South,185,0.0,0.0,98,0.00,,,0.00,Wunderground v.1.15,2013-10-15 07:03:00,
2013-10-15 02:12:00,63.4,62.8,30.02,South,185,0.0,0.0,98,0.00,,,0.00,Wunderground v.1.15,2013-10-15 07:12:00,
2013-10-15 02:17:00,63.8,63.2,30.02,South,185,0.0,0.0,98,0.00,,,0.00,Wunderground v.1.15,2013-10-15 07:17:00,
2013-10-15 02:22:00,64.2,63.6,30.02,South,185,0.0,0.0,98,0.00,,,0.00,Wunderground v.1.15,2013-10-15 07:22:00,
2013-10-15 02:27:00,64.3,63.7,30.02,South,184,0.0,0.0,98,0.00,,,0.00,Wunderground v.1.15,2013-10-15 07:27:00,
2013-10-15 02:32:00,64.1,63.5,30.02,South,185,0.0,0.0,98,0.00,,,0.00,Wunderground v.1.15,2013-10-15 07:32:00,
2013-10-15 02:38:00,64.0,63.4,30.02,South,185,0.0,0.0,98,0.00,,,0.00,Wunderground v.1.15,2013-10-15 07:38:00,
2013-10-15 02:43:00,64.1,63.5,30.02,South,184,0.0,0.0,98,0.00,,,0.00,Wunderground v.1.15,2013-10-15 07:43:00,
2013-10-15 02:48:00,64.3,63.7,30.01,South,185,0.0,0.0,98,0.00,,,0.00,Wunderground v.1.15,2013-10-15 07:48:00,
2013-10-15 02:53:00,64.4,63.8,30.01,South,185,0.0,0.0,98,0.00,,,0.00,Wunderground v.1.15,2013-10-15 07:53:00,
2013-10-15 02:58:00,64.2,63.6,30.01,South,185,0.0,0.0,98,0.00,,,0.00,Wunderground v.1.15,2013-10-15 07:58:00,
2013-10-15 03:03:00,64.0,63.4,30.02,South,184,0.0,0.0,98,0.00,,,0.00,Wunderground v.1.15,2013-10-15 08:03:00,
2013-10-15 03:12:00,63.7,63.1,30.02,South,185,0.0,0.0,98,0.00,,,0.00,Wunderground v.1.15,2013-10-15 08:12:00,
2013-10-15 03:22:00,63.8,63.2,30.01,South,184,0.0,0.0,98,0.00,,,0.00,Wunderground v.1.15,2013-10-15 08:22:00,
2013-10-15 03:27:00,63.9,63.3,30.02,South,184,0.0,0.0,98,0.00,,,0.00,Wunderground v.1.15,2013-10-15 08:27:00,
2013-10-15 03:32:00,63.7,63.1,30.02,South,184,0.0,0.0,98,0.00,,,0.00,Wunderground v.1.15,2013-10-15 08:32:00,
2013-10-15 03:37:00,63.5,62.9,30.02,South,185,0.0,0.0,98,0.00,,,0.00,Wunderground v.1.15,2013-10-15 08:37:00,
2013-10-15 03:42:00,63.3,62.7,30.02,South,185,0.0,0.0,98,0.00,,,0.00,Wunderground v.1.15,2013-10-15 08:42:00,
2013-10-15 03:48:00,63.6,63.0,30.02,South,185,0.0,0.0,98,0.00,,,0.00,Wunderground v.1.15,2013-10-15 08:48:00,
2013-10-15 03:53:00,63.6,63.0,30.02,South,185,0.0,0.0,98,0.00,,,0.00,Wunderground v.1.15,2013-10-15 08:53:00,
2013-10-15 03:58:00,63.3,62.7,30.02,South,185,0.0,0.0,98,0.00,,,0.00,Wunderground v.1.15,2013-10-15 08:58:00,
2013-10-15 04:03:00,63.5,62.9,30.02,South,184,0.0,0.0,98,0.00,,,0.00,Wunderground v.1.15,2013-10-15 09:03:00,
2013-10-15 04:07:00,63.7,63.1,30.02,South,185,0.0,0.0,98,0.00,,,0.00,Wunderground v.1.15,2013-10-15 09:07:00,
2013-10-15 04:12:00,64.0,63.4,30.01,South,185,0.0,0.0,98,0.00,,,0.00,Wunderground v.1.15,2013-10-15 09:12:00,
2013-10-15 04:22:00,64.0,63.4,30.02,SSE,150,0.0,0.0,98,0.00,,,0.00,Wunderground v.1.15,2013-10-15 09:22:00,
2013-10-15 04:27:00,63.9,63.3,30.02,SSE,149,0.0,0.0,98,0.00,,,0.00,Wunderground v.1.15,2013-10-15 09:27:00,
2013-10-15 04:38:00,64.2,63.6,30.02,SSE,150,0.0,0.0,98,0.00,,,0.00,Wunderground v.1.15,2013-10-15 09:38:00,
2013-10-15 04:42:00,63.9,63.3,30.02,NE,41,0.0,0.0,98,0.00,,,0.00,Wunderground v.1.15,2013-10-15 09:42:00,
2013-10-15 04:52:00,63.7,63.1,30.02,North,360,0.0,0.0,98,0.00,,,0.00,Wunderground v.1.15,2013-10-15 09:52:00,
2013-10-15 04:57:00,63.6,63.0,30.02,North,360,0.0,0.0,98,0.00,,,0.00,Wunderground v.1.15,2013-10-15 09:57:00,
2013-10-15 05:02:00,63.7,63.1,30.03,North,360,0.0,0.0,98,0.00,,,0.00,Wunderground v.1.15,2013-10-15 10:02:00,
2013-10-15 05:07:00,63.9,63.3,30.03,North,360,0.0,0.0,98,0.00,,,0.00,Wunderground v.1.15,2013-10-15 10:07:00,
2013-10-15 05:17:00,63.8,63.2,30.02,North,360,0.0,0.0,98,0.00,,,0.00,Wunderground v.1.15,2013-10-15 10:17:00,
2013-10-15 05:27:00,63.5,62.9,30.03,North,360,0.0,0.0,98,0.00,,,0.00,Wunderground v.1.15,2013-10-15 10:27:00,
2013-10-15 05:32:00,63.3,62.7,30.03,North,360,0.0,0.0,98,0.00,,,0.00,Wunderground v.1.15,2013-10-15 10:32:00,
2013-10-15 05:42:00,63.1,62.5,30.03,North,360,0.0,0.0,98,0.00,,,0.00,Wunderground v.1.15,2013-10-15 10:42:00,
2013-10-15 05:47:00,63.2,62.6,30.03,North,360,0.0,0.0,98,0.00,,,0.00,Wunderground v.1.15,2013-10-15 10:47:00,
2013-10-15 05:52:00,63.2,62.6,30.03,North,360,0.0,0.0,98,0.00,,,0.00,Wunderground v.1.15,2013-10-15 10:52:00,
2013-10-15 05:57:00,62.9,62.3,30.03,North,360,0.0,0.0,98,0.00,,,0.00,Wunderground v.1.15,2013-10-15 10:57:00,
2013-10-15 06:02:00,62.7,62.1,30.03,North,360,0.0,0.0,98,0.00,,,0.00,Wunderground v.1.15,2013-10-15 11:02:00,
2013-10-15 06:12:00,62.7,62.1,30.02,North,360,0.0,0.0,98,0.00,,,0.00,Wunderground v.1.15,2013-10-15 11:12:00,
2013-10-15 06:17:00,62.5,61.9,30.02,North,360,0.0,0.0,98,0.00,,,0.00,Wunderground v.1.15,2013-10-15 11:17:00,
2013-10-15 06:22:00,62.3,61.7,30.02,North,360,0.0,0.0,98,0.00,,,0.00,Wunderground v.1.15,2013-10-15 11:22:00,
2013-10-15 06:32:00,62.1,61.5,30.03,North,360,0.0,0.0,98,0.00,,,0.00,Wunderground v.1.15,2013-10-15 11:32:00,
2013-10-15 06:37:00,62.0,61.4,30.02,North,360,0.0,0.0,98,0.00,,,0.00,Wunderground v.1.15,2013-10-15 11:37:00,
2013-10-15 06:42:00,61.9,61.3,30.03,North,360,0.0,0.0,98,0.00,,,0.00,Wunderground v.1.15,2013-10-15 11:42:00,
2013-10-15 06:47:00,61.8,61.2,30.03,North,360,0.0,0.0,98,0.00,,,0.00,Wunderground v.1.15,2013-10-15 11:47:00,
2013-10-15 06:52:00,61.8,61.2,30.03,North,360,0.0,0.0,98,0.00,,,0.00,Wunderground v.1.15,2013-10-15 11:52:00,
2013-10-15 07:02:00,61.5,60.9,30.03,North,360,0.0,0.0,98,0.00,,,0.00,Wunderground v.1.15,2013-10-15 12:02:00,
2013-10-15 07:07:00,61.5,60.9,30.03,North,360,0.0,0.0,98,0.00,,,0.00,Wunderground v.1.15,2013-10-15 12:07:00,
2013-10-15 07:12:00,61.5,60.9,30.03,North,360,0.0,0.0,98,0.00,,,0.00,Wunderground v.1.15,2013-10-15 12:12:00,
2013-10-15 07:17:00,61.4,60.8,30.03,North,360,0.0,0.0,98,0.00,,,0.00,Wunderground v.1.15,2013-10-15 12:17:00,
2013-10-15 07:22:00,61.4,60.8,30.03,North,360,0.0,0.0,98,0.00,,,0.00,Wunderground v.1.15,2013-10-15 12:22:00,
2013-10-15 07:32:00,61.6,61.0,30.04,North,360,0.0,0.0,98,0.00,,,0.00,Wunderground v.1.15,2013-10-15 12:32:00,
2013-10-15 07:37:00,61.6,61.0,30.04,North,360,0.0,0.0,98,0.00,,,0.00,Wunderground v.1.15,2013-10-15 12:37:00,
2013-10-15 07:42:00,61.8,61.2,30.04,North,360,0.0,0.0,98,0.00,,,0.00,Wunderground v.1.15,2013-10-15 12:42:00,
2013-10-15 07:52:00,62.6,62.3,30.04,North,360,0.0,0.0,99,0.00,,,0.00,Wunderground v.1.15,2013-10-15 12:52:00,
2013-10-15 07:58:00,63.0,62.7,30.04,North,360,0.0,0.0,99,0.00,,,0.00,Wunderground v.1.15,2013-10-15 12:58:00,
2013-10-15 08:03:00,63.4,63.1,30.04,NNW,330,0.0,0.0,99,0.00,,,0.00,Wunderground v.1.15,2013-10-15 13:03:00,
2013-10-15 08:12:00,64.5,64.2,30.04,North,355,0.0,0.0,99,0.00,,,0.00,Wunderground v.1.15,2013-10-15 13:12:00,
2013-10-15 08:17:00,65.0,64.7,30.04,North,5,0.0,0.0,99,0.00,,,0.00,Wunderground v.1.15,2013-10-15 13:17:00,
2013-10-15 08:22:00,65.5,65.2,30.05,North,11,0.0,0.0,99,0.00,,,0.00,Wunderground v.1.15,2013-10-15 13:22:00,
2013-10-15 08:32:00,66.4,65.5,30.04,NNE,24,0.0,0.0,97,0.00,,,0.00,Wunderground v.1.15,2013-10-15 13:32:00,
2013-10-15 08:38:00,67.1,65.9,30.04,NE,53,0.0,0.0,96,0.00,,,0.00,Wunderground v.1.15,2013-10-15 13:38:00,
2013-10-15 08:43:00,67.9,66.4,30.04,East,80,0.0,0.0,95,0.00,,,0.00,Wunderground v.1.15,2013-10-15 13:43:00,
2013-10-15 08:53:00,68.6,66.5,30.05,WNW,296,0.0,0.0,93,0.00,,,0.00,Wunderground v.1.15,2013-10-15 13:53:00,
2013-10-15 09:03:00,69.1,66.7,30.05,NNE,19,0.0,0.0,92,0.00,,,0.00,Wunderground v.1.15,2013-10-15 14:03:00,
2013-10-15 09:13:00,69.7,67.0,30.05,NNE,15,0.0,0.0,91,0.00,,,0.00,Wunderground v.1.15,2013-10-15 14:13:00,
2013-10-15 09:22:00,71.2,67.8,30.05,SE,132,0.0,0.0,89,0.00,,,0.00,Wunderground v.1.15,2013-10-15 14:22:00,
2013-10-15 09:27:00,72.1,68.3,30.05,SE,131,0.0,0.0,88,0.00,,,0.00,Wunderground v.1.15,2013-10-15 14:27:00,
2013-10-15 09:38:00,73.2,68.8,30.05,East,82,0.0,0.0,86,0.00,,,0.00,Wunderground v.1.15,2013-10-15 14:38:00,
2013-10-15 09:48:00,73.3,68.5,30.05,NNE,15,0.0,0.0,85,0.00,,,0.00,Wunderground v.1.15,2013-10-15 14:48:00,
2013-10-15 09:53:00,74.0,69.2,30.05,East,86,0.0,0.0,85,0.00,,,0.00,Wunderground v.1.15,2013-10-15 14:53:00,
2013-10-15 10:02:00,75.2,69.7,30.05,North,350,0.0,0.0,83,0.00,,,0.00,Wunderground v.1.15,2013-10-15 15:02:00,
2013-10-15 10:12:00,75.5,69.3,30.05,NE,42,0.0,0.0,81,0.00,,,0.00,Wunderground v.1.15,2013-10-15 15:12:00,
2013-10-15 10:17:00,75.4,69.2,30.05,NNE,33,0.0,0.0,81,0.00,,,0.00,Wunderground v.1.15,2013-10-15 15:17:00,
2013-10-15 10:22:00,75.4,69.2,30.04,NNE,30,0.0,0.0,81,0.00,,,0.00,Wunderground v.1.15,2013-10-15 15:22:00,
2013-10-15 10:27:00,75.8,69.6,30.04,NNW,327,0.0,0.0,81,0.00,,,0.00,Wunderground v.1.15,2013-10-15 15:27:00,
2013-10-15 10:37:00,76.8,70.5,30.04,East,82,0.0,0.0,81,0.00,,,0.00,Wunderground v.1.15,2013-10-15 15:37:00,
2013-10-15 10:42:00,77.6,70.2,30.04,North,355,0.0,0.0,78,0.00,,,0.00,Wunderground v.1.15,2013-10-15 15:42:00,
2013-10-15 10:47:00,78.1,69.9,30.04,North,355,0.0,0.0,76,0.00,,,0.00,Wunderground v.1.15,2013-10-15 15:47:00,
2013-10-15 10:57:00,78.3,69.7,30.04,North,5,0.0,0.0,75,0.00,,,0.00,Wunderground v.1.15,2013-10-15 15:57:00,
2013-10-15 11:02:00,78.2,70.0,30.04,NE,36,0.0,0.0,76,0.00,,,0.00,Wunderground v.1.15,2013-10-15 16:02:00,
2013-10-15 11:12:00,79.0,70.0,30.04,SSE,157,0.0,0.0,74,0.00,,,0.00,Wunderground v.1.15,2013-10-15 16:12:00,
2013-10-15 11:22:00,79.2,69.8,30.04,North,355,0.0,0.0,73,0.00,,,0.00,Wunderground v.1.15,2013-10-15 16:22:00,
2013-10-15 11:27:00,79.1,70.1,30.03,North,355,0.0,0.0,74,0.00,,,0.00,Wunderground v.1.15,2013-10-15 16:27:00,
2013-10-15 11:37:00,78.7,70.9,30.03,North,355,0.0,0.0,77,0.00,,,0.00,Wunderground v.1.15,2013-10-15 16:37:00,
2013-10-15 11:47:00,78.4,69.0,30.03,NNE,27,0.0,0.0,73,0.00,,,0.00,Wunderground v.1.15,2013-10-15 16:47:00,
2013-10-15 11:52:00,79.0,69.6,30.03,NNE,26,0.0,0.0,73,0.00,,,0.00,Wunderground v.1.15,2013-10-15 16:52:00,
2013-10-15 12:02:00,79.6,69.8,30.02,North,360,0.0,0.0,72,0.00,,,0.00,Wunderground v.1.15,2013-10-15 17:02:00,
2013-10-15 12:07:00,79.9,69.7,30.02,North,360,0.0,0.0,71,0.00,,,0.00,Wunderground v.1.15,2013-10-15 17:07:00,
2013-10-15 12:17:00,80.8,69.2,30.01,NE,54,0.0,0.0,68,0.00,,,0.00,Wunderground v.1.15,2013-10-15 17:17:00,
2013-10-15 12:22:00,81.4,69.4,30.01,ENE,75,0.0,0.0,67,0.00,,,0.00,Wunderground v.1.15,2013-10-15 17:22:00,
2013-10-15 12:27:00,81.9,69.9,30.01,South,190,0.0,0.0,67,0.00,,,0.00,Wunderground v.1.15,2013-10-15 17:27:00,
2013-10-15 12:37:00,82.4,69.9,30.00,SSW,196,0.0,0.0,66,0.00,,,0.00,Wunderground v.1.15,2013-10-15 17:37:00,
2013-10-15 12:47:00,81.0,69.4,30.00,NNE,19,0.0,0.0,68,0.00,,,0.00,Wunderground v.1.15,2013-10-15 17:47:00,
2013-10-15 12:52:00,80.4,68.9,30.00,NNE,19,0.0,0.0,68,0.00,,,0.00,Wunderground v.1.15,2013-10-15 17:52:00,
2013-10-15 12:57:00,80.3,69.6,30.00,NNE,20,0.0,0.0,70,0.00,,,0.00,Wunderground v.1.15,2013-10-15 17:57:00,
2013-10-15 13:07:00,80.2,68.2,29.99,North,11,0.0,0.0,67,0.00,,,0.00,Wunderground v.1.15,2013-10-15 18:07:00,
2013-10-15 13:17:00,80.6,69.1,29.98,North,360,0.0,0.0,68,0.00,,,0.00,Wunderground v.1.15,2013-10-15 18:17:00,
2013-10-15 13:22:00,80.5,69.4,29.98,North,5,0.0,0.0,69,0.00,,,0.00,Wunderground v.1.15,2013-10-15 18:22:00,
2013-10-15 13:32:00,82.0,69.1,29.98,West,273,0.0,0.0,65,0.00,,,0.00,Wunderground v.1.15,2013-10-15 18:32:00,
2013-10-15 13:38:00,83.0,68.6,29.97,North,350,0.0,0.0,62,0.00,,,0.00,Wunderground v.1.15,2013-10-15 18:38:00,
2013-10-15 13:48:00,82.1,69.2,29.97,North,11,0.0,0.0,65,0.00,,,0.00,Wunderground v.1.15,2013-10-15 18:48:00,
2013-10-15 13:53:00,81.7,68.3,29.97,North,11,0.0,0.0,64,0.00,,,0.00,Wunderground v.1.15,2013-10-15 18:53:00,
2013-10-15 13:58:00,81.7,69.2,29.96,North,11,0.0,0.0,66,0.00,,,0.00,Wunderground v.1.15,2013-10-15 18:58:00,
2013-10-15 14:07:00,82.3,70.2,29.96,North,10,0.0,0.0,67,0.00,,,0.00,Wunderground v.1.15,2013-10-15 19:07:00,
2013-10-15 14:18:00,83.1,68.3,29.96,NNW,334,0.0,0.0,61,0.00,,,0.00,Wunderground v.1.15,2013-10-15 19:18:00,
2013-10-15 14:23:00,82.7,67.9,29.96,NNW,337,0.0,0.0,61,0.00,,,0.00,Wunderground v.1.15,2013-10-15 19:23:00,
2013-10-15 14:28:00,82.9,68.1,29.95,NNW,344,0.0,0.0,61,0.00,,,0.00,Wunderground v.1.15,2013-10-15 19:28:00,
2013-10-15 14:33:00,82.9,68.1,29.95,NNW,344,0.0,0.0,61,0.00,,,0.00,Wunderground v.1.15,2013-10-15 19:33:00,
2013-10-15 14:38:00,82.7,67.4,29.95,ENE,72,0.0,0.0,60,0.00,,,0.00,Wunderground v.1.15,2013-10-15 19:38:00,
2013-10-15 14:43:00,82.6,68.7,29.95,ENE,76,0.0,0.0,63,0.00,,,0.00,Wunderground v.1.15,2013-10-15 19:43:00,
2013-10-15 14:53:00,82.5,69.1,29.95,ESE,107,0.0,0.0,64,0.00,,,0.00,Wunderground v.1.15,2013-10-15 19:53:00,
2013-10-15 14:58:00,82.4,68.5,29.95,SE,130,0.0,0.0,63,0.00,,,0.00,Wunderground v.1.15,2013-10-15 19:58:00,
2013-10-15 15:03:00,82.0,69.5,29.95,South,173,0.0,0.0,66,0.00,,,0.00,Wunderground v.1.15,2013-10-15 20:03:00,
2013-10-15 15:08:00,81.2,70.5,29.95,South,191,0.0,0.0,70,0.00,,,0.00,Wunderground v.1.15,2013-10-15 20:08:00,
2013-10-15 15:13:00,80.9,70.2,29.95,South,191,0.0,0.0,70,0.00,,,0.00,Wunderground v.1.15,2013-10-15 20:13:00,
2013-10-15 15:23:00,80.6,70.3,29.95,South,191,0.0,0.0,71,0.00,,,0.00,Wunderground v.1.15,2013-10-15 20:23:00,
2013-10-15 15:28:00,80.2,70.4,29.95,South,191,0.0,0.0,72,0.00,,,0.00,Wunderground v.1.15,2013-10-15 20:28:00,
2013-10-15 15:33:00,80.0,70.2,29.95,South,191,0.0,0.0,72,0.00,,,0.00,Wunderground v.1.15,2013-10-15 20:33:00,
2013-10-15 15:38:00,79.7,69.5,29.95,South,180,0.0,0.0,71,0.00,,,0.00,Wunderground v.1.15,2013-10-15 20:38:00,
2013-10-15 15:48:00,79.3,70.3,29.95,South,173,0.0,0.0,74,0.00,,,0.00,Wunderground v.1.15,2013-10-15 20:48:00,
2013-10-15 15:57:00,78.8,70.2,29.95,SW,225,0.0,0.0,75,0.00,,,0.00,Wunderground v.1.15,2013-10-15 20:57:00,
2013-10-15 16:02:00,78.6,70.0,29.95,NNE,12,0.0,0.0,75,0.00,,,0.00,Wunderground v.1.15,2013-10-15 21:02:00,
2013-10-15 16:08:00,78.5,70.3,29.95,South,187,0.0,0.0,76,0.00,,,0.00,Wunderground v.1.15,2013-10-15 21:08:00,
2013-10-15 16:12:00,78.3,70.5,29.95,South,187,0.0,0.0,77,0.00,,,0.00,Wunderground v.1.15,2013-10-15 21:12:00,
2013-10-15 16:17:00,78.2,70.0,29.95,South,187,0.0,0.0,76,0.00,,,0.00,Wunderground v.1.15,2013-10-15 21:17:00,
2013-10-15 16:27:00,78.2,70.0,29.95,South,187,0.0,0.0,76,0.00,,,0.00,Wunderground v.1.15,2013-10-15 21:27:00,
2013-10-15 16:32:00,78.1,69.9,29.95,South,187,0.0,0.0,76,0.00,,,0.00,Wunderground v.1.15,2013-10-15 21:32:00,
2013-10-15 16:42:00,78.0,70.2,29.95,South,187,0.0,0.0,77,0.00,,,0.00,Wunderground v.1.15,2013-10-15 21:42:00,
2013-10-15 16:52:00,77.5,70.1,29.95,South,187,0.0,0.0,78,0.00,,,0.00,Wunderground v.1.15,2013-10-15 21:52:00,
2013-10-15 17:02:00,77.2,69.8,29.95,South,187,0.0,0.0,78,0.00,,,0.00,Wunderground v.1.15,2013-10-15 22:02:00,
2013-10-15 17:07:00,77.0,69.6,29.95,South,188,0.0,0.0,78,0.00,,,0.00,Wunderground v.1.15,2013-10-15 22:07:00,
2013-10-15 17:12:00,76.9,69.5,29.95,South,187,0.0,0.0,78,0.00,,,0.00,Wunderground v.1.15,2013-10-15 22:12:00,
2013-10-15 17:17:00,76.7,69.3,29.94,South,190,0.0,0.0,78,0.00,,,0.00,Wunderground v.1.15,2013-10-15 22:17:00,
2013-10-15 17:22:00,76.6,69.2,29.94,South,190,0.0,0.0,78,0.00,,,0.00,Wunderground v.1.15,2013-10-15 22:22:00,
2013-10-15 17:32:00,76.3,68.9,29.95,South,188,0.0,0.0,78,0.00,,,0.00,Wunderground v.1.15,2013-10-15 22:32:00,
2013-10-15 17:37:00,76.2,69.2,29.95,South,188,0.0,0.0,79,0.00,,,0.00,Wunderground v.1.15,2013-10-15 22:37:00,
2013-10-15 17:42:00,76.0,69.0,29.95,South,188,0.0,0.0,79,0.00,,,0.00,Wunderground v.1.15,2013-10-15 22:42:00,
2013-10-15 17:47:00,75.8,68.8,29.95,SSW,192,0.0,0.0,79,0.00,,,0.00,Wunderground v.1.15,2013-10-15 22:47:00,
2013-10-15 17:57:00,75.6,68.6,29.95,SSE,148,0.0,0.0,79,0.00,,,0.00,Wunderground v.1.15,2013-10-15 22:57:00,
2013-10-15 18:02:00,75.5,68.9,29.95,SE,136,0.0,0.0,80,0.00,,,0.00,Wunderground v.1.15,2013-10-15 23:02:00,
2013-10-15 18:07:00,75.3,68.7,29.95,SE,136,0.0,0.0,80,0.00,,,0.00,Wunderground v.1.15,2013-10-15 23:07:00,
2013-10-15 18:12:00,75.0,68.4,29.95,SE,136,0.0,0.0,80,0.00,,,0.00,Wunderground v.1.15,2013-10-15 23:12:00,
2013-10-15 18:17:00,74.8,68.6,29.95,SE,136,0.0,0.0,81,0.00,,,0.00,Wunderground v.1.15,2013-10-15 23:17:00,
2013-10-15 18:22:00,74.6,68.4,29.95,SE,136,0.0,0.0,81,0.00,,,0.00,Wunderground v.1.15,2013-10-15 23:22:00,
2013-10-15 18:32:00,74.1,68.3,29.95,SE,136,0.0,0.0,82,0.00,,,0.00,Wunderground v.1.15,2013-10-15 23:32:00,
2013-10-15 18:37:00,73.8,68.3,29.95,SE,136,0.0,0.0,83,0.00,,,0.00,Wunderground v.1.15,2013-10-15 23:37:00,
2013-10-15 18:42:00,73.6,68.1,29.95,SE,136,0.0,0.0,83,0.00,,,0.00,Wunderground v.1.15,2013-10-15 23:42:00,
2013-10-15 18:47:00,73.4,67.9,29.95,SE,136,0.0,0.0,83,0.00,,,0.00,Wunderground v.1.15,2013-10-15 23:47:00,
2013-10-15 18:52:00,73.3,68.2,29.96,SE,136,0.0,0.0,84,0.00,,,0.00,Wunderground v.1.15,2013-10-15 23:52:00,
2013-10-15 18:57:00,73.1,68.3,29.96,SE,136,0.0,0.0,85,0.00,,,0.00,Wunderground v.1.15,2013-10-15 23:57:00,
2013-10-15 19:07:00,72.5,68.4,29.96,SE,136,0.0,0.0,87,0.00,,,0.00,Wunderground v.1.15,2013-10-16 00:07:00,
2013-10-15 19:17:00,71.8,68.1,29.97,SE,136,0.0,0.0,88,0.00,,,0.00,Wunderground v.1.15,2013-10-16 00:17:00,
2013-10-15 19:22:00,71.6,67.9,29.97,SE,136,0.0,0.0,88,0.00,,,0.00,Wunderground v.1.15,2013-10-16 00:22:00,
2013-10-15 19:27:00,71.5,68.1,29.97,SE,136,0.0,0.0,89,0.00,,,0.00,Wunderground v.1.15,2013-10-16 00:27:00,
2013-10-15 19:38:00,70.9,67.5,29.97,SE,136,0.0,0.0,89,0.00,,,0.00,Wunderground v.1.15,2013-10-16 00:38:00,
2013-10-15 19:43:00,70.7,67.6,29.97,SE,136,0.0,0.0,90,0.00,,,0.00,Wunderground v.1.15,2013-10-16 00:43:00,
2013-10-15 19:53:00,70.2,67.4,29.97,SE,136,0.0,0.0,91,0.00,,,0.00,Wunderground v.1.15,2013-10-16 00:53:00,
2013-10-15 19:58:00,70.0,67.3,29.97,SE,136,0.0,0.0,91,0.00,,,0.00,Wunderground v.1.15,2013-10-16 00:58:00,
2013-10-15 20:08:00,69.7,67.3,29.97,SE,136,0.0,0.0,92,0.00,,,0.00,Wunderground v.1.15,2013-10-16 01:08:00,
2013-10-15 20:13:00,69.5,67.1,29.97,SE,136,0.0,0.0,92,0.00,,,0.00,Wunderground v.1.15,2013-10-16 01:13:00,
2013-10-15 20:18:00,69.4,67.3,29.97,SE,136,0.0,0.0,93,0.00,,,0.00,Wunderground v.1.15,2013-10-16 01:18:00,
2013-10-15 20:23:00,69.4,67.3,29.97,SE,136,0.0,0.0,93,0.00,,,0.00,Wunderground v.1.15,2013-10-16 01:23:00,
2013-10-15 20:33:00,69.6,67.5,29.98,SE,136,0.0,0.0,93,0.00,,,0.00,Wunderground v.1.15,2013-10-16 01:33:00,
2013-10-15 20:38:00,69.7,67.6,29.98,SE,136,0.0,0.0,93,0.00,,,0.00,Wunderground v.1.15,2013-10-16 01:38:00,
2013-10-15 20:48:00,69.7,67.3,29.98,SE,136,0.0,0.0,92,0.00,,,0.00,Wunderground v.1.15,2013-10-16 01:48:00,
2013-10-15 20:53:00,69.6,67.2,29.98,SE,136,0.0,0.0,92,0.00,,,0.00,Wunderground v.1.15,2013-10-16 01:53:00,
2013-10-15 20:58:00,69.5,67.4,29.98,SE,136,0.0,0.0,93,0.00,,,0.00,Wunderground v.1.15,2013-10-16 01:58:00,
2013-10-15 21:03:00,69.5,67.4,29.99,SE,136,0.0,0.0,93,0.00,,,0.00,Wunderground v.1.15,2013-10-16 02:03:00,
2013-10-15 21:08:00,69.4,67.3,29.99,SE,136,0.0,0.0,93,0.00,,,0.00,Wunderground v.1.15,2013-10-16 02:08:00,
2013-10-15 21:13:00,69.4,67.3,29.99,SE,136,0.0,0.0,93,0.00,,,0.00,Wunderground v.1.15,2013-10-16 02:13:00,
2013-10-15 21:18:00,69.4,67.3,29.99,SE,136,0.0,0.0,93,0.00,,,0.00,Wunderground v.1.15,2013-10-16 02:18:00,
2013-10-15 21:23:00,69.3,67.2,29.99,SE,136,0.0,0.0,93,0.00,,,0.00,Wunderground v.1.15,2013-10-16 02:23:00,
2013-10-15 21:28:00,69.0,66.9,29.99,SE,136,0.0,0.0,93,0.00,,,0.00,Wunderground v.1.15,2013-10-16 02:28:00,
2013-10-15 21:33:00,68.7,66.6,29.99,SE,136,0.0,0.0,93,0.00,,,0.00,Wunderground v.1.15,2013-10-16 02:33:00,
2013-10-15 21:42:00,68.2,66.4,29.99,SE,136,0.0,0.0,94,0.00,,,0.00,Wunderground v.1.15,2013-10-16 02:42:00,
2013-10-15 21:47:00,68.0,66.2,29.99,SE,136,0.0,0.0,94,0.00,,,0.00,Wunderground v.1.15,2013-10-16 02:47:00,
2013-10-15 21:57:00,67.7,66.2,30.00,SE,136,0.0,0.0,95,0.00,,,0.00,Wunderground v.1.15,2013-10-16 02:57:00,
2013-10-15 22:02:00,67.8,66.3,30.00,SE,136,0.0,0.0,95,0.00,,,0.00,Wunderground v.1.15,2013-10-16 03:02:00,
2013-10-15 22:07:00,67.8,66.3,30.00,SE,136,0.0,0.0,95,0.00,,,0.00,Wunderground v.1.15,2013-10-16 03:07:00,
2013-10-15 22:17:00,67.5,66.0,30.00,SE,136,0.0,0.0,95,0.00,,,0.00,Wunderground v.1.15,2013-10-16 03:17:00,
2013-10-15 22:27:00,67.1,65.9,30.00,SE,136,0.0,0.0,96,0.00,,,0.00,Wunderground v.1.15,2013-10-16 03:27:00,
2013-10-15 22:37:00,67.0,65.8,30.00,SE,136,0.0,0.0,96,0.00,,,0.00,Wunderground v.1.15,2013-10-16 03:37:00,
2013-10-15 22:43:00,67.0,65.8,30.00,SE,136,0.0,0.0,96,0.00,,,0.00,Wunderground v.1.15,2013-10-16 03:43:00,
2013-10-15 22:48:00,67.1,65.9,30.00,SE,136,0.0,0.0,96,0.00,,,0.00,Wunderground v.1.15,2013-10-16 03:48:00,
2013-10-15 22:57:00,67.4,66.5,29.99,SE,136,0.0,0.0,97,0.00,,,0.00,Wunderground v.1.15,2013-10-16 03:57:00,
2013-10-15 23:02:00,67.6,66.7,29.99,SE,136,0.0,0.0,97,0.00,,,0.00,Wunderground v.1.15,2013-10-16 04:02:00,
2013-10-15 23:07:00,67.6,66.7,29.99,SE,136,0.0,0.0,97,0.00,,,0.00,Wunderground v.1.15,2013-10-16 04:07:00,
2013-10-15 23:12:00,67.5,66.3,29.99,SE,136,0.0,0.0,96,0.00,,,0.00,Wunderground v.1.15,2013-10-16 04:12:00,
2013-10-15 23:17:00,67.4,66.2,29.99,SE,136,0.0,0.0,96,0.00,,,0.00,Wunderground v.1.15,2013-10-16 04:17:00,
2013-10-15 23:22:00,67.2,66.0,29.99,SE,136,0.0,0.0,96,0.00,,,0.00,Wunderground v.1.15,2013-10-16 04:22:00,
2013-10-15 23:27:00,67.0,65.8,29.98,SE,136,0.0,0.0,96,0.00,,,0.00,Wunderground v.1.15,2013-10-16 04:27:00,
2013-10-15 23:32:00,66.8,65.6,29.98,SE,136,0.0,0.0,96,0.00,,,0.00,Wunderground v.1.15,2013-10-16 04:32:00,
2013-10-15 23:37:00,66.7,65.5,29.98,SE,136,0.0,0.0,96,0.00,,,0.00,Wunderground v.1.15,2013-10-16 04:37:00,
2013-10-15 23:42:00,66.6,65.4,29.98,SE,136,0.0,0.0,96,0.00,,,0.00,Wunderground v.1.15,2013-10-16 04:42:00,
2013-10-15 23:52:00,66.7,65.8,29.97,SE,136,0.0,0.0,97,0.00,,,0.00,Wunderground v.1.15,2013-10-16 04:52:00,
2013-10-15 23:57:00,66.8,65.9,29.97,SE,136,0.0,0.0,97,0.00,,,0.00,Wunderground v.1.15,2013-10-16 04:57:00,